Weather History for Inverness, FL

Change the Weather History Date:

Sunday, February 10, 2013

  Actual Average (KOCF) Record (KOCF)
Temperature  
Mean Temperature 64 °F -  
Max Temperature 80 °F 69 °F 82 °F (2001)
Min Temperature 48 °F 44 °F 28 °F (2006)
Degree Days  
Heating Degree Days 1    
Growing Degree Days 14 (Base 50)    
Moisture  
Dew Point 53 °F    
Average Humidity 68    
Maximum Humidity 100    
Minimum Humidity 42    
Precipitation  
Precipitation 0.00 in - - ()
Sea Level Pressure  
Sea Level Pressure 30.22 in    
Wind  
Wind Speed 3 mph (SE)    
Max Wind Speed 15 mph    
Max Gust Speed 20 mph    
Visibility 10 miles    
Events      
Averages and records for this station are not official NWS values.
T = Trace of Precipitation, MM = Missing Value Source: NWS Daily Summary

Daily Weather History Graph

Daily Weather History Graph

Search for Another Location

Airport:

Trip Planner

Search our weather history database for the weather conditions in past years. The results will help you decide how hot, cold, wet, or windy it might be!

Date:

Astronomy

Feb. 10, 2013 Rise Set
Actual Time 7:11 AM EST 6:15 PM EST
Civil Twilight 6:47 AM EST 6:40 PM EST
Nautical Twilight 6:19 AM EST 7:08 PM EST
Astronomical Twilight 5:51 AM EST 7:35 PM EST
Moon 7:06 AM EST (2/10) 6:56 PM EST (2/10)
Length of Visible Light 11h 52m
Length of Day
11h 04m
New Moon, 0% of the Moon is Illuminated
Feb 10
New Moon
Feb 17
First Quarter
Feb 25
Full
Mar 4
Last Quarter
Mar 11
New

Hourly Weather History & Observations

Time (EST) Temp. Heat Index Dew Point Humidity Pressure Visibility Wind Dir Wind Speed Gust Speed Precip Events Conditions
12:15 AM 53.6 °F - 48.2 °F 82% 30.24 in 10.0 mi Calm Calm - N/A   Clear
12:35 AM 51.8 °F - 48.2 °F 88% 30.23 in 10.0 mi Calm Calm - N/A   Clear
12:55 AM 51.8 °F - 48.2 °F 88% 30.23 in 10.0 mi Calm Calm - N/A   Clear
1:15 AM 51.8 °F - 48.2 °F 88% 30.23 in 10.0 mi Calm Calm - N/A   Clear
1:35 AM 51.8 °F - 48.2 °F 88% 30.22 in 10.0 mi Calm Calm - N/A   Clear
1:55 AM 51.8 °F - 48.2 °F 88% 30.22 in 10.0 mi Calm Calm - N/A   Clear
2:15 AM 51.8 °F - 48.2 °F 88% 30.22 in 10.0 mi Calm Calm - N/A   Clear
2:35 AM 51.8 °F - 50.0 °F 94% 30.22 in 10.0 mi Calm Calm - N/A   Clear
2:55 AM 51.8 °F - 50.0 °F 94% 30.22 in 10.0 mi Calm Calm - N/A   Clear
3:15 AM 50.0 °F - 50.0 °F 100% 30.22 in 10.0 mi Calm Calm - N/A   Clear
3:35 AM 51.8 °F - 50.0 °F 94% 30.22 in 10.0 mi Calm Calm - N/A   Clear
3:55 AM 50.0 °F - 50.0 °F 100% 30.22 in 10.0 mi Calm Calm - N/A   Clear
4:15 AM 51.8 °F - 50.0 °F 94% 30.21 in 10.0 mi Calm Calm - N/A   Clear
4:35 AM 51.8 °F - 50.0 °F 94% 30.21 in 10.0 mi Calm Calm - N/A   Clear
4:55 AM 51.8 °F - 50.0 °F 94% 30.21 in 10.0 mi Calm Calm - N/A   Clear
5:15 AM 51.8 °F - 50.0 °F 94% 30.22 in 10.0 mi Calm Calm - N/A   Clear
5:35 AM 51.8 °F - 50.0 °F 94% 30.21 in 10.0 mi Calm Calm - N/A   Clear
5:55 AM 50.0 °F - 48.2 °F 94% 30.22 in 10.0 mi Calm Calm - N/A   Clear
6:15 AM 50.0 °F - 48.2 °F 94% 30.22 in 10.0 mi Calm Calm - N/A   Clear
6:35 AM 50.0 °F - 48.2 °F 94% 30.22 in 10.0 mi Calm Calm - N/A   Clear
6:55 AM 48.2 °F - 46.4 °F 93% 30.23 in 10.0 mi Calm Calm - N/A   Clear
7:15 AM 48.2 °F - 48.2 °F 100% 30.24 in 10.0 mi Calm Calm - N/A   Clear
7:35 AM 48.2 °F - 46.4 °F 93% 30.25 in 10.0 mi Calm Calm - N/A   Clear
8:15 AM 53.6 °F - 51.8 °F 94% 30.26 in 10.0 mi Calm Calm - N/A   Scattered Clouds
8:35 AM 57.2 °F - 53.6 °F 88% 30.27 in 10.0 mi Calm Calm - N/A   Scattered Clouds
8:55 AM 60.8 °F - 53.6 °F 77% 30.28 in 10.0 mi East 4.6 mph - N/A   Clear
9:15 AM 62.6 °F - 53.6 °F 72% 30.28 in 10.0 mi East 4.6 mph - N/A   Scattered Clouds
9:35 AM 68.0 °F - 53.6 °F 60% 30.28 in 10.0 mi ESE 11.5 mph - N/A   Scattered Clouds
9:55 AM 69.8 °F - 53.6 °F 56% 30.29 in 10.0 mi ESE 10.4 mph - N/A   Scattered Clouds
10:15 AM 69.8 °F - 53.6 °F 56% 30.28 in 10.0 mi ESE 11.5 mph - N/A   Mostly Cloudy
10:35 AM 71.6 °F - 53.6 °F 53% 30.29 in 10.0 mi SE 9.2 mph 16.1 mph N/A   Scattered Clouds
10:55 AM 73.4 °F - 53.6 °F 50% 30.29 in 10.0 mi SE 8.1 mph 11.5 mph N/A   Mostly Cloudy
11:15 AM 73.4 °F - 53.6 °F 50% 30.28 in 10.0 mi ESE 10.4 mph 17.3 mph N/A   Mostly Cloudy
11:35 AM 75.2 °F - 53.6 °F 47% 30.27 in 7.0 mi SE 10.4 mph 17.3 mph N/A   Mostly Cloudy
11:55 AM 75.2 °F - 53.6 °F 47% 30.27 in 7.0 mi ESE 11.5 mph 16.1 mph N/A   Scattered Clouds
12:15 PM 75.2 °F - 53.6 °F 47% 30.26 in 7.0 mi SE 10.4 mph 18.4 mph N/A   Mostly Cloudy
12:35 PM 77.0 °F - 53.6 °F 44% 30.24 in 7.0 mi ESE 15.0 mph 19.6 mph N/A   Mostly Cloudy
12:55 PM 78.8 °F - 55.4 °F 44% 30.23 in 10.0 mi SE 9.2 mph 18.4 mph N/A   Clear
1:15 PM 78.8 °F - 55.4 °F 44% 30.22 in 10.0 mi SE 12.7 mph 16.1 mph N/A   Mostly Cloudy
1:35 PM 77.0 °F - 55.4 °F 47% 30.21 in 10.0 mi South 10.4 mph - N/A   Mostly Cloudy
1:55 PM 80.6 °F 80.5 °F 55.4 °F 42% 30.20 in 10.0 mi South 12.7 mph 16.1 mph N/A   Mostly Cloudy
2:15 PM 78.8 °F - 55.4 °F 44% 30.19 in 10.0 mi SE 9.2 mph - N/A   Mostly Cloudy
2:35 PM 78.8 °F - 55.4 °F 44% 30.19 in 10.0 mi SE 8.1 mph - N/A   Mostly Cloudy
2:55 PM 78.8 °F - 55.4 °F 44% 30.19 in 10.0 mi SE 9.2 mph - N/A   Mostly Cloudy
3:15 PM 78.8 °F - 53.6 °F 42% 30.18 in 10.0 mi SE 10.4 mph - N/A   Mostly Cloudy
3:35 PM 78.8 °F - 53.6 °F 42% 30.18 in 10.0 mi SSE 8.1 mph - N/A   Mostly Cloudy
3:55 PM 78.8 °F - 53.6 °F 42% 30.17 in 10.0 mi ESE 9.2 mph - N/A   Scattered Clouds
4:15 PM 78.8 °F - 53.6 °F 42% 30.17 in 10.0 mi East 9.2 mph - N/A   Mostly Cloudy
4:35 PM 77.0 °F - 55.4 °F 47% 30.17 in 10.0 mi SE 6.9 mph - N/A   Mostly Cloudy
4:55 PM 77.0 °F - 53.6 °F 44% 30.16 in 10.0 mi SE 5.8 mph - N/A   Mostly Cloudy
5:15 PM 77.0 °F - 53.6 °F 44% 30.17 in 10.0 mi ESE 9.2 mph - N/A   Scattered Clouds
5:35 PM 77.0 °F - 53.6 °F 44% 30.17 in 10.0 mi ESE 4.6 mph - N/A   Scattered Clouds
5:55 PM 75.2 °F - 55.4 °F 50% 30.17 in 10.0 mi ESE 5.8 mph - N/A   Scattered Clouds
6:15 PM 73.4 °F - 55.4 °F 53% 30.18 in 10.0 mi ESE 3.5 mph - N/A   Clear
6:35 PM 71.6 °F - 55.4 °F 57% 30.18 in 10.0 mi ESE 5.8 mph - N/A   Scattered Clouds
6:55 PM 71.6 °F - 55.4 °F 57% 30.19 in 10.0 mi ESE 4.6 mph - N/A   Clear
7:15 PM 69.8 °F - 55.4 °F 60% 30.19 in 10.0 mi ESE 3.5 mph - N/A   Scattered Clouds
7:35 PM 69.8 °F - 55.4 °F 60% 30.19 in 10.0 mi ESE 4.6 mph - N/A   Scattered Clouds
7:55 PM 69.8 °F - 55.4 °F 60% 30.19 in 10.0 mi SE 5.8 mph - N/A   Scattered Clouds
8:15 PM 69.8 °F - 57.2 °F 64% 30.19 in 10.0 mi SE 8.1 mph - N/A   Clear
8:35 PM 68.0 °F - 55.4 °F 64% 30.20 in 10.0 mi SE 5.8 mph - N/A   Clear
8:55 PM 68.0 °F - 55.4 °F 64% 30.21 in 10.0 mi SSE 4.6 mph - N/A   Clear
9:15 PM 68.0 °F - 55.4 °F 64% 30.21 in 10.0 mi SSE 5.8 mph - N/A   Scattered Clouds
9:35 PM 68.0 °F - 55.4 °F 64% 30.21 in 10.0 mi SSE 8.1 mph - N/A   Clear
9:55 PM 68.0 °F - 55.4 °F 64% 30.21 in 10.0 mi SSE 6.9 mph - N/A   Clear
10:15 PM 66.2 °F - 55.4 °F 68% 30.22 in 10.0 mi SSE 6.9 mph - N/A   Clear
10:35 PM 64.4 °F - 55.4 °F 73% 30.21 in 10.0 mi SSE 8.1 mph - N/A   Clear
10:55 PM 64.4 °F - 55.4 °F 73% 30.21 in 10.0 mi SSE 6.9 mph - N/A   Clear
11:15 PM 64.4 °F - 55.4 °F 73% 30.20 in 10.0 mi SSE 8.1 mph - N/A   Clear
11:35 PM 62.6 °F - 55.4 °F 77% 30.20 in 10.0 mi South 6.9 mph - N/A   Clear
11:55 PM 62.6 °F - 55.4 °F 77% 30.20 in 10.0 mi SSE 5.8 mph - N/A   Clear